Time,TemperatureF,DewpointF,PressureIn,WindDirection,WindDirectionDegrees,WindSpeedMPH,WindSpeedGustMPH,Humidity,HourlyPrecipIn,Conditions,Clouds,dailyrainin,SolarRadiationWatts/m^2,SoftwareType,DateUTC
2013-01-28 00:01:00,38.0,10.0,-100.00,SE,141,20.0,31.0,31,0.00,,,0.00,0.000000,,2013-01-28 08:01:00,
2013-01-28 00:11:00,38.0,10.0,-100.00,SE,141,20.0,31.0,31,0.00,,,0.00,0.000000,,2013-01-28 08:11:00,
2013-01-28 00:21:00,38.0,10.0,-100.00,SE,141,20.0,31.0,31,0.00,,,0.00,0.000000,,2013-01-28 08:21:00,
2013-01-28 00:52:00,35.0,11.0,-100.00,SE,124,26.0,32.0,36,0.00,,,0.00,0.000000,,2013-01-28 08:52:00,
2013-01-28 01:02:00,35.0,11.0,-100.00,SE,124,26.0,32.0,36,0.00,,,0.00,0.000000,,2013-01-28 09:02:00,
2013-01-28 01:11:00,35.0,11.0,-100.00,SE,124,26.0,32.0,36,0.00,,,0.00,0.000000,,2013-01-28 09:11:00,
2013-01-28 01:21:00,35.0,11.0,-100.00,SE,124,26.0,32.0,36,0.00,,,0.00,0.000000,,2013-01-28 09:21:00,
2013-01-28 01:52:00,34.0,12.0,-100.00,WSW,237,17.0,31.0,39,0.00,,,0.00,0.000000,,2013-01-28 09:52:00,
2013-01-28 02:01:00,34.0,12.0,-100.00,WSW,237,17.0,31.0,39,0.00,,,0.00,0.000000,,2013-01-28 10:01:00,
2013-01-28 02:11:00,34.0,12.0,-100.00,WSW,237,17.0,31.0,39,0.00,,,0.00,0.000000,,2013-01-28 10:11:00,
2013-01-28 02:21:00,34.0,12.0,-100.00,WSW,237,17.0,31.0,39,0.00,,,0.00,0.000000,,2013-01-28 10:21:00,
2013-01-28 02:52:00,35.0,18.0,-100.00,NW,312,11.0,30.0,49,0.00,,,0.00,0.000000,,2013-01-28 10:52:00,
2013-01-28 03:02:00,35.0,18.0,-100.00,NW,312,11.0,30.0,49,0.00,,,0.00,0.000000,,2013-01-28 11:02:00,
2013-01-28 03:11:00,35.0,18.0,-100.00,NW,312,11.0,30.0,49,0.00,,,0.00,0.000000,,2013-01-28 11:11:00,
2013-01-28 03:21:00,35.0,18.0,-100.00,NW,312,11.0,30.0,49,0.00,,,0.00,0.000000,,2013-01-28 11:21:00,
2013-01-28 03:52:00,33.0,14.0,-100.00,NNW,330,10.0,19.0,46,0.00,,,0.00,0.000000,,2013-01-28 11:52:00,
2013-01-28 04:03:00,33.0,14.0,-100.00,NNW,330,10.0,19.0,46,0.00,,,0.00,0.000000,,2013-01-28 12:03:00,
2013-01-28 04:11:00,33.0,14.0,-100.00,NNW,330,10.0,19.0,46,0.00,,,0.00,0.000000,,2013-01-28 12:11:00,
2013-01-28 04:22:00,33.0,14.0,-100.00,NNW,330,10.0,19.0,46,0.00,,,0.00,0.000000,,2013-01-28 12:22:00,
2013-01-28 04:52:00,34.0,12.0,-100.00,ENE,62,27.0,35.0,39,0.00,,,0.00,0.000000,,2013-01-28 12:52:00,
2013-01-28 05:02:00,34.0,12.0,-100.00,ENE,62,27.0,35.0,39,0.00,,,0.00,0.000000,,2013-01-28 13:02:00,
2013-01-28 05:11:00,34.0,12.0,-100.00,ENE,62,27.0,35.0,39,0.00,,,0.00,0.000000,,2013-01-28 13:11:00,
2013-01-28 05:22:00,34.0,12.0,-100.00,ENE,62,27.0,35.0,39,0.00,,,0.00,0.000000,,2013-01-28 13:22:00,
2013-01-28 05:53:00,32.0,9.0,-100.00,ESE,107,23.0,34.0,38,0.00,,,0.00,0.000000,,2013-01-28 13:53:00,
2013-01-28 06:02:00,32.0,9.0,-100.00,ESE,107,23.0,34.0,38,0.00,,,0.00,0.000000,,2013-01-28 14:02:00,
2013-01-28 06:12:00,32.0,9.0,-100.00,ESE,107,23.0,34.0,38,0.00,,,0.00,0.000000,,2013-01-28 14:12:00,
2013-01-28 06:22:00,32.0,9.0,-100.00,ESE,107,23.0,34.0,38,0.00,,,0.00,0.000000,,2013-01-28 14:22:00,
2013-01-28 06:53:00,33.0,11.0,-100.00,ENE,75,25.0,37.0,39,0.00,,,0.00,0.000000,,2013-01-28 14:53:00,
2013-01-28 07:03:00,33.0,11.0,-100.00,ENE,75,25.0,37.0,39,0.00,,,0.00,0.000000,,2013-01-28 15:03:00,
2013-01-28 07:12:00,33.0,11.0,-100.00,ENE,75,25.0,37.0,39,0.00,,,0.00,0.000000,,2013-01-28 15:12:00,
2013-01-28 07:22:00,33.0,11.0,-100.00,ENE,75,25.0,37.0,39,0.00,,,0.00,0.000000,,2013-01-28 15:22:00,
2013-01-28 07:53:00,33.0,11.0,-100.00,NW,324,14.0,38.0,40,0.00,,,0.00,9.000000,,2013-01-28 15:53:00,
2013-01-28 08:03:00,33.0,11.0,-100.00,NW,324,14.0,38.0,40,0.00,,,0.00,9.000000,,2013-01-28 16:03:00,
2013-01-28 08:12:00,33.0,11.0,-100.00,NW,324,14.0,38.0,40,0.00,,,0.00,9.000000,,2013-01-28 16:12:00,
2013-01-28 08:22:00,33.0,11.0,-100.00,NW,324,14.0,38.0,40,0.00,,,0.00,9.000000,,2013-01-28 16:22:00,
2013-01-28 08:53:00,33.0,9.0,-100.00,NNE,30,22.0,30.0,36,0.00,,,0.00,201.000000,,2013-01-28 16:53:00,
2013-01-28 09:01:00,33.0,9.0,-100.00,NNE,30,22.0,30.0,36,0.00,,,0.00,201.000000,,2013-01-28 17:01:00,
2013-01-28 09:11:00,33.0,9.0,-100.00,NNE,30,22.0,30.0,36,0.00,,,0.00,201.000000,,2013-01-28 17:11:00,
2013-01-28 09:22:00,33.0,9.0,-100.00,NNE,30,22.0,30.0,36,0.00,,,0.00,201.000000,,2013-01-28 17:22:00,
2013-01-28 09:52:00,35.0,9.0,-100.00,NNE,21,20.0,30.0,34,0.00,,,0.00,430.000000,,2013-01-28 17:52:00,
2013-01-28 10:02:00,35.0,9.0,-100.00,NNE,21,20.0,30.0,34,0.00,,,0.00,430.000000,,2013-01-28 18:02:00,
2013-01-28 10:12:00,35.0,9.0,-100.00,NNE,21,20.0,30.0,34,0.00,,,0.00,430.000000,,2013-01-28 18:12:00,
2013-01-28 10:22:00,35.0,9.0,-100.00,NNE,21,20.0,30.0,34,0.00,,,0.00,430.000000,,2013-01-28 18:22:00,
2013-01-28 10:52:00,36.0,10.0,-100.00,NE,35,17.0,28.0,33,0.00,,,0.00,625.000000,,2013-01-28 18:52:00,
2013-01-28 11:02:00,36.0,10.0,-100.00,NE,35,17.0,28.0,33,0.00,,,0.00,625.000000,,2013-01-28 19:02:00,
2013-01-28 11:12:00,36.0,10.0,-100.00,NE,35,17.0,28.0,33,0.00,,,0.00,625.000000,,2013-01-28 19:12:00,
2013-01-28 11:22:00,36.0,10.0,-100.00,NE,35,17.0,28.0,33,0.00,,,0.00,625.000000,,2013-01-28 19:22:00,
2013-01-28 11:52:00,41.0,11.0,-100.00,NE,47,7.0,25.0,29,0.00,,,0.00,757.000000,,2013-01-28 19:52:00,
2013-01-28 12:02:00,41.0,11.0,-100.00,NE,47,7.0,25.0,29,0.00,,,0.00,757.000000,,2013-01-28 20:02:00,
2013-01-28 12:11:00,41.0,11.0,-100.00,NE,47,7.0,25.0,29,0.00,,,0.00,757.000000,,2013-01-28 20:11:00,
2013-01-28 12:21:00,41.0,11.0,-100.00,NE,47,7.0,25.0,29,0.00,,,0.00,757.000000,,2013-01-28 20:21:00,
2013-01-28 12:52:00,42.0,3.0,-100.00,ENE,77,24.0,36.0,19,0.00,,,0.00,818.000000,,2013-01-28 20:52:00,
2013-01-28 13:02:00,42.0,3.0,-100.00,ENE,77,24.0,36.0,19,0.00,,,0.00,818.000000,,2013-01-28 21:02:00,
2013-01-28 13:53:00,41.0,4.0,-100.00,NNE,24,21.0,40.0,21,0.00,,,0.00,806.000000,,2013-01-28 21:53:00,
2013-01-28 14:11:00,41.0,4.0,-100.00,NNE,24,21.0,40.0,21,0.00,,,0.00,806.000000,,2013-01-28 22:11:00,
2013-01-28 14:22:00,41.0,4.0,-100.00,NNE,24,21.0,40.0,21,0.00,,,0.00,806.000000,,2013-01-28 22:22:00,
2013-01-28 14:52:00,43.0,17.0,-100.00,NW,319,8.0,26.0,34,0.00,,,0.00,677.000000,,2013-01-28 22:52:00,
2013-01-28 15:01:00,43.0,17.0,-100.00,NW,319,8.0,26.0,34,0.00,,,0.00,677.000000,,2013-01-28 23:01:00,
2013-01-28 15:11:00,43.0,17.0,-100.00,NW,319,8.0,26.0,34,0.00,,,0.00,677.000000,,2013-01-28 23:11:00,
2013-01-28 15:22:00,43.0,17.0,-100.00,NW,319,8.0,26.0,34,0.00,,,0.00,677.000000,,2013-01-28 23:22:00,
2013-01-28 15:53:00,41.0,12.0,-100.00,NW,305,10.0,17.0,30,0.00,,,0.00,355.000000,,2013-01-28 23:53:00,
2013-01-28 16:02:00,41.0,12.0,-100.00,NW,305,10.0,17.0,30,0.00,,,0.00,355.000000,,2013-01-29 00:02:00,
2013-01-28 16:11:00,41.0,12.0,-100.00,NW,305,10.0,17.0,30,0.00,,,0.00,355.000000,,2013-01-29 00:11:00,
2013-01-28 16:21:00,41.0,12.0,-100.00,NW,305,10.0,17.0,30,0.00,,,0.00,355.000000,,2013-01-29 00:21:00,
2013-01-28 16:52:00,41.0,7.0,-100.00,NW,309,11.0,17.0,24,0.00,,,0.00,139.000000,,2013-01-29 00:52:00,
2013-01-28 17:02:00,41.0,7.0,-100.00,NW,309,11.0,17.0,24,0.00,,,0.00,139.000000,,2013-01-29 01:02:00,
2013-01-28 17:11:00,41.0,7.0,-100.00,NW,309,11.0,17.0,24,0.00,,,0.00,139.000000,,2013-01-29 01:11:00,
2013-01-28 17:22:00,41.0,7.0,-100.00,NW,309,11.0,17.0,24,0.00,,,0.00,139.000000,,2013-01-29 01:22:00,
2013-01-28 17:52:00,41.0,16.0,-100.00,NW,319,13.0,21.0,36,0.00,,,0.00,17.000000,,2013-01-29 01:52:00,
2013-01-28 18:02:00,41.0,16.0,-100.00,NW,319,13.0,21.0,36,0.00,,,0.00,17.000000,,2013-01-29 02:02:00,
2013-01-28 18:11:00,41.0,16.0,-100.00,NW,319,13.0,21.0,36,0.00,,,0.00,17.000000,,2013-01-29 02:11:00,
2013-01-28 18:21:00,41.0,16.0,-100.00,NW,319,13.0,21.0,36,0.00,,,0.00,17.000000,,2013-01-29 02:21:00,
2013-01-28 18:53:00,40.0,15.0,-100.00,NW,315,10.0,20.0,35,0.00,,,0.00,0.000000,,2013-01-29 02:53:00,
2013-01-28 19:02:00,40.0,15.0,-100.00,NW,315,10.0,20.0,35,0.00,,,0.00,0.000000,,2013-01-29 03:02:00,
2013-01-28 19:11:00,40.0,15.0,-100.00,NW,315,10.0,20.0,35,0.00,,,0.00,0.000000,,2013-01-29 03:11:00,
2013-01-28 19:21:00,40.0,15.0,-100.00,NW,315,10.0,20.0,35,0.00,,,0.00,0.000000,,2013-01-29 03:21:00,
2013-01-28 19:53:00,38.0,10.0,-100.00,NW,315,12.0,18.0,31,0.00,,,0.00,0.000000,,2013-01-29 03:53:00,
2013-01-28 20:02:00,38.0,10.0,-100.00,NW,315,12.0,18.0,31,0.00,,,0.00,0.000000,,2013-01-29 04:02:00,
2013-01-28 20:11:00,38.0,10.0,-100.00,NW,315,12.0,18.0,31,0.00,,,0.00,0.000000,,2013-01-29 04:11:00,
2013-01-28 20:21:00,38.0,10.0,-100.00,NW,315,12.0,18.0,31,0.00,,,0.00,0.000000,,2013-01-29 04:21:00,
2013-01-28 20:52:00,39.0,17.0,-100.00,NW,314,17.0,23.0,41,0.00,,,0.00,0.000000,,2013-01-29 04:52:00,
2013-01-28 21:03:00,39.0,17.0,-100.00,NW,314,17.0,23.0,41,0.00,,,0.00,0.000000,,2013-01-29 05:03:00,
2013-01-28 21:12:00,39.0,17.0,-100.00,NW,314,17.0,23.0,41,0.00,,,0.00,0.000000,,2013-01-29 05:12:00,
2013-01-28 21:21:00,39.0,17.0,-100.00,NW,314,17.0,23.0,41,0.00,,,0.00,0.000000,,2013-01-29 05:21:00,
2013-01-28 21:52:00,38.0,15.0,-100.00,NW,316,12.0,26.0,38,0.00,,,0.00,0.000000,,2013-01-29 05:52:00,
2013-01-28 22:01:00,38.0,15.0,-100.00,NW,316,12.0,26.0,38,0.00,,,0.00,0.000000,,2013-01-29 06:01:00,
2013-01-28 22:11:00,38.0,15.0,-100.00,NW,316,12.0,26.0,38,0.00,,,0.00,0.000000,,2013-01-29 06:11:00,
2013-01-28 22:21:00,38.0,15.0,-100.00,NW,316,12.0,26.0,38,0.00,,,0.00,0.000000,,2013-01-29 06:21:00,
2013-01-28 22:52:00,38.0,15.0,-100.00,SW,231,2.0,19.0,39,0.00,,,0.00,0.000000,,2013-01-29 06:52:00,
2013-01-28 23:01:00,38.0,15.0,-100.00,SW,231,2.0,19.0,39,0.00,,,0.00,0.000000,,2013-01-29 07:01:00,
2013-01-28 23:11:00,38.0,15.0,-100.00,SW,231,2.0,19.0,39,0.00,,,0.00,0.000000,,2013-01-29 07:11:00,
2013-01-28 23:21:00,38.0,15.0,-100.00,SW,231,2.0,19.0,39,0.00,,,0.00,0.000000,,2013-01-29 07:21:00,
2013-01-28 23:52:00,38.0,16.0,-100.00,NW,323,8.0,13.0,40,0.00,,,0.00,0.000000,,2013-01-29 07:52:00,